User: anonymous   Login
Location: CNYAC Observatory
(43.2150°N, 74.9500°W)
Time: 13:36:01
(UTC-04:00)
Language:

Meteor 1-22 Rocket - Orbit

View from above orbital plane
View from above orbital plane
View from above satellite
View from above satellite

Ground track
Ground track

The orbit data is extracted from the following two-line orbital elements,

1 08294U 75087B   15141.70661465 -.00000120  00000-0 -73401-4 0  9991
2 08294 081.2111 040.9175 0107447 019.3030 341.2161 14.08504393 38213
Epoch (UTC): 21 May 2015 16:57:31
Eccentricity: 0.0107447
inclination: 81.2111°
perigee height: 786 km
apogee height: 942 km
right ascension of ascending node: 40.9175°
argument of perigee: 19.3030°
revolutions per day: 14.08504393
mean anomaly at epoch: 341.2161°
orbit number at epoch: 3821

The dashed part of the orbit path shows where the satellite is in the earth's shadow,  

DLR